[[{"header":{"parameterUnit":"m.s-1","parameterCategory":2,"la1":30.2991,"la2":30.254,"lo1":-89.0895,"lo2":-89.0444,"dy":0.0017,"dx":0.0017,"nx":28,"ny":28,"refTime":"2024-05-13T21:00:00:Z","depth":"0","parameterNumber":2,"parameterNumberName":"U-component_of_CURRENTS"},"data":[0,0,0,0,0,0,0,0,0,0,0,0,0,0,0,0,0,0,0,0,0,0,0,0,0,0,0,0,0,0,0,0,0,0,0,0,0,0,0,0,0,0,0,0,0,0,0,0,0,0,0,0,0,0,0,0,0,0,0.391,0.3911,0,0.3978,0.3978,0.3978,0.3935,0.3934,0.3933,0.3931,0.386,0.386,0.3859,0,0,0,0,0,0,0,0,0,0,0,0,0,0.3734,0.3737,0.391,0.3911,0.3913,0.3978,0.3978,0.3978,0.3935,0.3934,0.3932,0.3931,0.3861,0.386,0.3859,0,0,0,0,0,0,0,0,0,0,0,0,0,0.3799,0.3738,0.3909,0.3906,0.3907,0.3978,0.3978,0.3978,0.3935,0.3934,0.3932,0.393,0.3861,0.386,0.3859,0.3887,0,0,0.3855,0.3854,0,0,0,0,0,0,0,0,0.3795,0.3804,0.3905,0.3907,0.3908,0.3954,0.3891,0.3944,0.3936,0.3915,0.3931,0.3929,0.3886,0.3883,0.3888,0.3884,0.388,0.3855,0.3854,0.3854,0.3853,0,0,0,0,0,0,0,0.3791,0.3801,0.3927,0.3907,0.3909,0.39,0.3906,0.3901,0.39,0.3917,0.3916,0.3939,0.3884,0.389,0.3886,0.3879,0.3855,0.3854,0.3853,0.3853,0.388,0.3882,0,0,0,0,0,0,0.3804,0.3797,0.3925,0.393,0.3856,0.3905,0.3911,0.3934,0.3903,0.3901,0.394,0.3937,0.3893,0.3888,0.3883,0.3901,0.3854,0.3853,0.3852,0.3879,0.3881,0.3882,0,0,0,0,0,0,0.38,0.3815,0.3923,0.3872,0.3886,0.3911,0.3936,0.3936,0.3946,0.3924,0.3916,0.3951,0.3891,0.3885,0.3885,0.3898,0.3852,0.3851,0.3877,0.3879,0.3881,0.3944,0,0,0,0,0,0,0.3794,0.3813,0.383,0.3873,0.389,0.3973,0.3938,0.3939,0.3967,0.3963,0.3931,0.3923,0.3889,0.3887,0.3884,0.3895,0.385,0.3875,0.3878,0.3881,0.394,0.3948,0.3954,0,0,0,0,0,0.3788,0.3825,0.383,0.3846,0.3914,0.3976,0.3983,0.3987,0.397,0.3985,0.396,0.3924,0.3902,0.3888,0.3884,0.3895,0.3874,0.3877,0.3881,0.3936,0.3946,0.3954,0,0,0,0,0,0,0.3753,0.3827,0.3832,0.3888,0.3933,0.3972,0.4,0.4,0.3997,0.3986,0.3946,0.3937,0.3942,0.3919,0.3905,0.3913,0.3881,0.3884,0.3925,0.3934,0.3941,0.3926,0.3849,0,0,0,0,0,0.376,0.3806,0.3867,0.3911,0.3942,0.3972,0.3997,0.4001,0.4013,0.401,0.3985,0.3963,0.3956,0.3944,0.3933,0.3942,0.3931,0.3947,0.3954,0.396,0.3947,0.3954,0.396,0.3893,0.3893,0.3893,0,0,0.3757,0.3807,0.383,0.3907,0.3943,0.3979,0.398,0.403,0.4037,0.4003,0.3997,0.3992,0.3967,0.3971,0.3971,0.395,0.3982,0.3964,0.397,0.3952,0.3958,0.3964,0.397,0.3895,0.3895,0.3894,0,0,0.3779,0.3826,0.3869,0.3914,0.3984,0.4,0.4019,0.4061,0.406,0.408,0.4047,0.4048,0.4042,0.4016,0.4006,0.4051,0.4026,0.4055,0.4071,0.4079,0.4084,0.4089,0.4115,0.4121,0.4052,0.4053,0.4053,0,0.3765,0.3828,0.3889,0.3941,0.397,0.4009,0.4039,0.4058,0.4082,0.4085,0.4084,0.4079,0.4059,0.4051,0.4063,0.4063,0.4074,0.4038,0.4088,0.4091,0.4094,0.4121,0.4126,0.4056,0.4055,0.4055,0.4055,0,0.3816,0.3862,0.3899,0.3963,0.4,0.4044,0.4082,0.4107,0.4116,0.4121,0.4137,0.4126,0.4116,0.4121,0.4104,0.4115,0.4121,0.4102,0.4062,0.4105,0.413,0.4135,0.4061,0.406,0.4059,0.4058,0,0,0.3781,0.3905,0.3912,0.3939,0.4012,0.4045,0.408,0.4114,0.4124,0.4153,0.4162,0.4165,0.4164,0.4152,0.4137,0.4141,0.4186,0.4134,0.4133,0.4156,0.4228,0.4226,0.4231,0.4182,0.4182,0.4183,0.4249,0,0.3789,0.3877,0.3926,0.3972,0.4017,0.4063,0.4084,0.4117,0.4141,0.4161,0.4174,0.4175,0.4174,0.4175,0.4184,0.4185,0.4197,0.4171,0.4186,0.4187,0.4175,0.4235,0.4135,0.4184,0.4253,0.4254,0.4254,0,0.3805,0.3865,0.3915,0.3984,0.4004,0.4023,0.4065,0.4093,0.4138,0.4157,0.4182,0.4191,0.4211,0.4198,0.4234,0.4225,0.4228,0.4229,0.4231,0.4201,0.4193,0.4146,0.4189,0.4098,0.4261,0.4261,0.426,0,0.3747,0.3845,0.3874,0.3902,0.3985,0.4003,0.4041,0.4089,0.4104,0.4152,0.4184,0.4203,0.4235,0.4243,0.4279,0.4258,0.4323,0.4289,0.429,0.4291,0.419,0.4181,0.4133,0.4297,0.4297,0.4297,0.4297,0,0.3731,0.3751,0.3853,0.3871,0.3893,0.3972,0.3976,0.4032,0.4084,0.4101,0.4174,0.4204,0.425,0.4303,0.4301,0.4337,0.4349,0.4302,0.4306,0.4214,0.4207,0.4108,0.4055,0.4299,0.4299,0.4298,0.4298,0,0.3651,0.372,0.3756,0.3845,0.3865,0.3882,0.3939,0.3947,0.4036,0.4074,0.4097,0.4218,0.4306,0.4361,0.4392,0.438,0.4278,0.439,0.4297,0.4288,0.4179,0.4133,0.3901,0.3789,0.4391,0.4391,0.4391,0,0.3618,0.3635,0.3711,0.3715,0.3747,0.3783,0.3795,0.3891,0.3916,0.4073,0.4095,0.423,0.4298,0.4402,0.4408,0.4433,0.4283,0.4335,0.4255,0.4169,0.4121,0.3922,0.383,0.4162,0.416,0.4159,0.4158,0,0.3546,0.3565,0.3592,0.3612,0.3626,0.3634,0.369,0.3699,0.3824,0.3906,0.4022,0.4103,0.427,0.4277,0.4359,0.435,0.4139,0.4307,0.4225,0.3945,0.3714,0.3611,0.4145,0.4146,0.4147,0.4148,0.4149,0.4149,0.3467,0.3459,0.349,0.3481,0.3494,0.348,0.3444,0.3532,0.3579,0.3679,0.3866,0.396,0.4131,0.4246,0.4203,0.4127,0.4055,0.4023,0.3984,0.3796,0.3641,0.4168,0.4168,0.4169,0.417,0.4171,0.4172,0,0.336,0.3357,0.3357,0.3336,0.3283,0.3342,0.3349,0.3301,0.3318,0.3495,0.3602,0.3789,0.385,0.3935,0.3981,0.3843,0.3622,0.3731,0.3425,0.3357,0.3852,0.3799,0.3709,0.3709,0.3709,0.371,0.371,0.371,0.3304,0.3255,0.3245,0.3124,0.3098,0.2993,0.2961,0.2951,0.3027,0.311,0.322,0.3376,0.3648,0.3783,0.3696,0.3598,0.33,0.3149,0.3101,0.3484,0.3507,0.3529,0.3467,0.3309,0.3308,0.248,0.2474,0.2469]},{"header":{"parameterUnit":"m.s-1","parameterCategory":2,"la1":30.2991,"la2":30.254,"lo1":-89.0895,"lo2":-89.0444,"dy":0.0017,"dx":0.0017,"nx":28,"ny":28,"refTime":"2024-05-13T21:00:00:Z","depth":"0","parameterNumber":3,"parameterNumberName":"V-component_of_CURRENTS"},"data":[0,0,0,0,0,0,0,0,0,0,0,0,0,0,0,0,0,0,0,0,0,0,0,0,0,0,0,0,0,0,0,0,0,0,0,0,0,0,0,0,0,0,0,0,0,0,0,0,0,0,0,0,0,0,0,0,0,0,0.0216,0.0216,0,0.0198,0.0198,0.0197,0.017,0.0169,0.0169,0.0168,0.0096,0.0095,0.0093,0,0,0,0,0,0,0,0,0,0,0,0,0,0.0202,0.0202,0.0216,0.0216,0.0216,0.0198,0.0198,0.0197,0.017,0.0169,0.0169,0.0168,0.0097,0.0095,0.0093,0,0,0,0,0,0,0,0,0,0,0,0,0,0.0197,0.0202,0.0216,0.0201,0.0199,0.0198,0.0198,0.0197,0.017,0.0169,0.0169,0.0168,0.0098,0.0095,0.0093,0.009,0,0,0.0086,0.0085,0,0,0,0,0,0,0,0,0.0197,0.0197,0.0203,0.0202,0.02,0.0187,0.0166,0.0159,0.017,0.018,0.0168,0.0168,0.0123,0.0118,0.0115,0.0087,0.0083,0.0086,0.0084,0.0083,0.0082,0,0,0,0,0,0,0,0.0198,0.0198,0.0207,0.0203,0.0201,0.0186,0.0185,0.0165,0.0153,0.0179,0.0177,0.0177,0.0121,0.0118,0.0113,0.0082,0.0086,0.0084,0.0082,0.0081,0.0043,0.0043,0,0,0,0,0,0,0.0205,0.0199,0.0208,0.0207,0.0199,0.0187,0.0186,0.019,0.0154,0.0149,0.0178,0.0176,0.0122,0.0116,0.011,0.0114,0.0083,0.0081,0.008,0.0042,0.0043,0.0043,0,0,0,0,0,0,0.0205,0.0206,0.0209,0.0203,0.0202,0.0189,0.0194,0.019,0.0186,0.0154,0.0147,0.0176,0.0121,0.0114,0.0105,0.0111,0.008,0.0078,0.0042,0.0042,0.0043,0.0116,0,0,0,0,0,0,0.0204,0.0206,0.0211,0.0204,0.0203,0.022,0.0194,0.0191,0.0188,0.0185,0.0151,0.0144,0.012,0.0109,0.0103,0.0107,0.0076,0.0041,0.0042,0.0043,0.0113,0.0119,0.0124,0,0,0,0,0,0.0204,0.0223,0.0211,0.0212,0.021,0.0221,0.022,0.0206,0.0188,0.0197,0.0175,0.0145,0.0108,0.0108,0.01,0.0104,0.0041,0.0042,0.0043,0.011,0.0118,0.0124,0,0,0,0,0,0,0.0224,0.0222,0.0209,0.0227,0.0225,0.0217,0.0226,0.021,0.0199,0.0193,0.0156,0.0149,0.0142,0.0113,0.0114,0.0094,0.0067,0.0066,0.012,0.0127,0.0132,0.0158,0.0074,0,0,0,0,0,0.0229,0.024,0.0234,0.0248,0.0251,0.0235,0.0236,0.0225,0.0215,0.021,0.0186,0.0158,0.014,0.0127,0.0108,0.01,0.0067,0.0094,0.01,0.0105,0.0121,0.0076,0.0079,0.0046,0.0046,0.0046,0,0,0.0241,0.024,0.0246,0.0252,0.025,0.0273,0.0235,0.0243,0.0258,0.0203,0.0214,0.0179,0.0143,0.0139,0.0131,0.0115,0.0096,0.0106,0.0111,0.0124,0.0077,0.008,0.0083,0.0047,0.0046,0.0046,0,0,0.0282,0.0271,0.0298,0.0304,0.0305,0.0298,0.0303,0.0295,0.0287,0.0289,0.0252,0.0224,0.02,0.0174,0.0158,0.0179,0.0129,0.0167,0.0213,0.017,0.0172,0.0174,0.0135,0.0133,0.0166,0.0166,0.0167,0,0.0295,0.0329,0.0308,0.034,0.0353,0.0316,0.0353,0.0344,0.0332,0.033,0.0303,0.026,0.0218,0.0211,0.0216,0.0192,0.0163,0.0193,0.0178,0.0179,0.018,0.0139,0.0135,0.017,0.017,0.0169,0.0169,0,0.0363,0.0388,0.0408,0.0434,0.0441,0.0467,0.0455,0.0458,0.0434,0.0416,0.0399,0.0342,0.0316,0.0289,0.026,0.0246,0.0223,0.0193,0.0165,0.0188,0.0143,0.0138,0.0175,0.0174,0.0173,0.0172,0,0,0.0404,0.0448,0.0455,0.0485,0.0493,0.0512,0.0534,0.0546,0.0564,0.052,0.0534,0.0473,0.0427,0.0405,0.035,0.0305,0.0271,0.0259,0.0254,0.0227,0.0182,0.0182,0.0176,0.024,0.024,0.0239,0.0148,0,0.0466,0.0545,0.0544,0.0616,0.0659,0.0637,0.0669,0.0665,0.064,0.0643,0.0563,0.0549,0.0476,0.0457,0.0404,0.0312,0.0262,0.0299,0.0158,0.0154,0.0157,0.0172,0.0219,0.0143,0.0143,0.0142,0.0141,0,0.0539,0.0581,0.0666,0.072,0.0737,0.0772,0.0807,0.0825,0.0806,0.0779,0.0735,0.0676,0.0611,0.0538,0.0395,0.0425,0.0316,0.0231,0.0225,0.0201,0.0146,0.0119,0.0134,-0.0029,0.0133,0.0134,0.0135,0,0.0593,0.0666,0.0737,0.0758,0.0813,0.0848,0.0871,0.0872,0.09,0.0861,0.0872,0.0772,0.0739,0.0593,0.0427,0.0409,0.0268,0.0212,0.0108,0.0106,0.0107,0.0107,-0.0043,0.0107,0.0107,0.0107,0.0108,0,0.0665,0.0723,0.0775,0.082,0.091,0.0915,0.0995,0.0994,0.1008,0.106,0.0949,0.0968,0.0753,0.0652,0.0472,0.0294,0.0298,0.0127,0.0087,0.0133,0.0136,-0.0037,-0.0137,0.0104,0.0105,0.0105,0.0106,0,0.0721,0.0755,0.0845,0.0916,0.0946,0.1008,0.1089,0.1139,0.1136,0.1202,0.1199,0.1116,0.0986,0.0772,0.0538,0.0371,0.0091,0.0109,0.0184,0.0154,-0.0099,-0.0196,-0.0378,-0.0454,-0.0026,-0.0026,-0.0027,0,0.0759,0.0814,0.0916,0.0974,0.1014,0.1103,0.117,0.1198,0.1259,0.1309,0.1355,0.1261,0.1231,0.0892,0.0573,0.0268,0.0087,0.0091,0.0055,-0.0095,-0.0234,-0.0298,-0.0354,0.0075,0.0076,0.0076,0.0076,0,0.0827,0.0864,0.0935,0.1055,0.1141,0.1244,0.1345,0.142,0.1475,0.1545,0.1623,0.1609,0.1314,0.1046,0.0626,0.0394,-0.0005,0.0089,-0.0089,-0.0178,-0.0234,-0.0331,0.0112,0.008,0.008,0.0079,0.0079,0.0079,0.0872,0.0932,0.1027,0.1142,0.1244,0.1379,0.1479,0.1601,0.1738,0.1882,0.1847,0.1888,0.1494,0.094,0.0595,0.0029,0.0003,-0.0138,-0.0247,-0.0301,-0.0359,0.01,0.0038,0.0037,0.0037,0.0036,0.0036,0,0.0923,0.0996,0.1104,0.1245,0.1364,0.1412,0.1592,0.1709,0.1899,0.2059,0.2148,0.202,0.1514,0.0968,0.0213,-0.0208,-0.0372,-0.0448,-0.0537,-0.0584,-0.0192,-0.017,-0.025,-0.025,-0.025,-0.025,-0.025,-0.0249,0.0952,0.106,0.1119,0.1321,0.1424,0.1593,0.1706,0.1899,0.2061,0.2281,0.2363,0.2394,0.2014,0.0626,-0.0317,-0.0555,-0.083,-0.0889,-0.1057,-0.0798,-0.0777,-0.0758,-0.0761,-0.0964,-0.0965,-0.1368,-0.1372,-0.1376]}],[{"header":{"parameterUnit":"m.s-1","parameterCategory":2,"la1":30.2991,"la2":30.254,"lo1":-89.0895,"lo2":-89.0444,"dy":0.0017,"dx":0.0017,"nx":28,"ny":28,"refTime":"2024-05-13T21:00:00:Z","depth":"2","parameterNumber":2,"parameterNumberName":"U-component_of_CURRENTS"},"data":[0,0,0,0,0,0,0,0,0,0,0,0,0,0,0,0,0,0,0,0,0,0,0,0,0,0,0,0,0,0,0,0,0,0,0,0,0,0,0,0,0,0,0,0,0,0,0,0,0,0,0,0,0,0,0,0,0,0,0.3058,0.3059,0,0.3097,0.3097,0.3097,0.3092,0.3092,0.3091,0.3091,0.31,0.31,0.3101,0,0,0,0,0,0,0,0,0,0,0,0,0,0.299,0.299,0.3058,0.3059,0.306,0.3097,0.3097,0.3097,0.3092,0.3092,0.3091,0.3091,0.31,0.31,0.3101,0,0,0,0,0,0,0,0,0,0,0,0,0,0.3019,0.2991,0.3058,0.3065,0.3066,0.3097,0.3097,0.3098,0.3092,0.3092,0.3091,0.3091,0.31,0.31,0.3101,0.3111,0,0,0.3103,0.3103,0,0,0,0,0,0,0,0,0.3017,0.302,0.3063,0.3065,0.3066,0.3094,0.3077,0.3102,0.3092,0.3077,0.3091,0.3091,0.3098,0.3099,0.3101,0.3112,0.3112,0.3103,0.3103,0.3104,0.3104,0,0,0,0,0,0,0,0.3015,0.3019,0.3069,0.3064,0.3066,0.3071,0.3074,0.3081,0.3085,0.3078,0.3079,0.3091,0.3098,0.31,0.3101,0.3112,0.3103,0.3103,0.3104,0.3104,0.3185,0.3187,0,0,0,0,0,0,0.302,0.3017,0.3067,0.307,0.3046,0.3073,0.3076,0.3081,0.3085,0.3087,0.3092,0.3091,0.3099,0.31,0.3101,0.3159,0.3104,0.3104,0.3105,0.3184,0.3186,0.3188,0,0,0,0,0,0,0.3018,0.3023,0.3066,0.3049,0.3055,0.3075,0.308,0.3082,0.3097,0.3097,0.3097,0.3107,0.3099,0.31,0.313,0.3157,0.3105,0.3105,0.3182,0.3184,0.3187,0.3245,0,0,0,0,0,0,0.3016,0.3022,0.3032,0.3049,0.3056,0.3097,0.3081,0.3083,0.3107,0.3107,0.311,0.311,0.3099,0.3129,0.3131,0.3157,0.3106,0.3179,0.3183,0.3186,0.3241,0.325,0.3257,0,0,0,0,0,0.3013,0.3026,0.3032,0.3039,0.3067,0.3099,0.3103,0.3112,0.3108,0.3122,0.313,0.311,0.3151,0.3131,0.3133,0.316,0.3178,0.3182,0.3186,0.3238,0.3248,0.3257,0,0,0,0,0,0,0.3002,0.3028,0.3034,0.3055,0.3083,0.31,0.3118,0.3124,0.314,0.3141,0.3132,0.3134,0.3172,0.3161,0.314,0.3195,0.3162,0.3166,0.3201,0.321,0.3218,0.3208,0.3106,0,0,0,0,0,0.3006,0.3022,0.305,0.307,0.3086,0.3105,0.312,0.3129,0.3146,0.3153,0.316,0.317,0.3188,0.3195,0.3209,0.3236,0.3232,0.3256,0.3264,0.327,0.3264,0.329,0.33,0.3201,0.3201,0.3201,0,0,0.3006,0.3026,0.3034,0.307,0.3089,0.3115,0.3112,0.3144,0.3165,0.3152,0.3186,0.3202,0.3204,0.3239,0.3255,0.3233,0.3302,0.3275,0.3281,0.3271,0.3295,0.3305,0.3313,0.3203,0.3203,0.3203,0,0,0.3015,0.3036,0.3051,0.3079,0.3119,0.3133,0.3148,0.3179,0.3195,0.3237,0.3233,0.3263,0.3293,0.3297,0.3302,0.3361,0.3347,0.3374,0.3398,0.3424,0.3432,0.3439,0.3465,0.3473,0.3371,0.3372,0.3372,0,0.3016,0.3037,0.3063,0.309,0.3113,0.3144,0.3167,0.3192,0.3231,0.3251,0.3257,0.3316,0.3317,0.335,0.3372,0.3376,0.3392,0.336,0.3433,0.344,0.3446,0.347,0.3479,0.3375,0.3374,0.3374,0.3374,0,0.3034,0.3058,0.3075,0.3113,0.3142,0.3172,0.3211,0.325,0.328,0.3302,0.336,0.3377,0.3407,0.342,0.3414,0.346,0.346,0.3445,0.3405,0.3459,0.3482,0.349,0.338,0.3378,0.3377,0.3377,0,0,0.3011,0.3072,0.3077,0.31,0.3156,0.3181,0.3233,0.3282,0.3318,0.3369,0.3414,0.3454,0.3471,0.3478,0.3481,0.35,0.3561,0.3494,0.3494,0.3512,0.3631,0.3594,0.3599,0.3566,0.3567,0.3568,0.3636,0,0.3015,0.306,0.3089,0.3134,0.3161,0.3211,0.3255,0.3308,0.3357,0.3414,0.3448,0.3493,0.349,0.3516,0.3538,0.3561,0.3583,0.3545,0.3581,0.3582,0.3536,0.3606,0.3332,0.3366,0.3643,0.3644,0.3645,0,0.3013,0.3049,0.3084,0.315,0.3166,0.3198,0.3276,0.3323,0.3406,0.3446,0.3503,0.3535,0.3587,0.3571,0.3636,0.3619,0.3629,0.3637,0.3639,0.3584,0.3559,0.3354,0.3369,0.3658,0.3657,0.3656,0.3655,0,0.2974,0.3041,0.3066,0.3089,0.3167,0.3199,0.3251,0.3333,0.3375,0.3471,0.3523,0.3581,0.3633,0.3658,0.3697,0.3675,0.3762,0.3729,0.3702,0.37,0.3459,0.3433,0.3761,0.3761,0.3761,0.3761,0.3761,0,0.2956,0.2976,0.3054,0.3069,0.3111,0.3184,0.3232,0.3302,0.3391,0.3443,0.3537,0.3591,0.3661,0.3723,0.3727,0.3757,0.3793,0.3719,0.3719,0.3476,0.3452,0.3689,0.368,0.3764,0.3763,0.3763,0.3762,0,0.2891,0.2941,0.2973,0.306,0.3086,0.312,0.3209,0.3246,0.3362,0.344,0.3478,0.3618,0.3714,0.3775,0.3829,0.3803,0.382,0.3811,0.353,0.3496,0.3729,0.3722,0.3786,0.3786,0.3785,0.3785,0.3784,0,0.2857,0.287,0.2945,0.2959,0.2992,0.3053,0.3086,0.3205,0.3254,0.3443,0.3478,0.3626,0.3694,0.3794,0.3778,0.3793,0.3838,0.3534,0.3432,0.3741,0.3734,0.3728,0.3722,0.3141,0.3135,0.3131,0.3127,0,0.2793,0.2817,0.2841,0.2876,0.2908,0.2938,0.3015,0.3047,0.3199,0.3289,0.3412,0.349,0.3626,0.353,0.3586,0.3547,0.3512,0.3444,0.3833,0.319,0.3141,0.3132,0.3145,0.3086,0.309,0.3093,0.3095,0.3097,0.2732,0.2726,0.2759,0.2772,0.2805,0.2816,0.2801,0.2899,0.2965,0.3072,0.3239,0.3271,0.3329,0.3278,0.3185,0.3117,0.3354,0.3186,0.3196,0.3211,0.3138,0.3092,0.3014,0.3017,0.302,0.3023,0.3025,0,0.2644,0.2643,0.2655,0.2654,0.2626,0.2695,0.2731,0.2695,0.2722,0.2858,0.294,0.2767,0.2739,0.2781,0.2628,0.2644,0.2569,0.2524,0.239,0.2437,0.2477,0.2359,0.2031,0.2028,0.2024,0.2021,0,0,0.2597,0.2556,0.255,0.2468,0.2468,0.2396,0.2385,0.2374,0.2422,0.2413,0.2417,0.2637,0.2732,0.2351,0.2314,0.2135,0.2253,0.2052,0.2864,0.2755,0.2789,0.2893,0.2771,0,0,0,0,0]},{"header":{"parameterUnit":"m.s-1","parameterCategory":2,"la1":30.2991,"la2":30.254,"lo1":-89.0895,"lo2":-89.0444,"dy":0.0017,"dx":0.0017,"nx":28,"ny":28,"refTime":"2024-05-13T21:00:00:Z","depth":"2","parameterNumber":3,"parameterNumberName":"V-component_of_CURRENTS"},"data":[0,0,0,0,0,0,0,0,0,0,0,0,0,0,0,0,0,0,0,0,0,0,0,0,0,0,0,0,0,0,0,0,0,0,0,0,0,0,0,0,0,0,0,0,0,0,0,0,0,0,0,0,0,0,0,0,0,0,0.0256,0.0255,0,0.024,0.024,0.024,0.021,0.021,0.021,0.0209,0.0139,0.0138,0.0136,0,0,0,0,0,0,0,0,0,0,0,0,0,0.0224,0.0225,0.0256,0.0255,0.0255,0.024,0.024,0.0239,0.0211,0.021,0.021,0.0209,0.014,0.0138,0.0136,0,0,0,0,0,0,0,0,0,0,0,0,0,0.0225,0.0225,0.0256,0.024,0.0239,0.024,0.024,0.0239,0.0211,0.021,0.0209,0.0209,0.014,0.0138,0.0136,0.0135,0,0,0.0129,0.0128,0,0,0,0,0,0,0,0,0.0225,0.0226,0.0243,0.0241,0.024,0.0228,0.0203,0.0202,0.0211,0.022,0.0209,0.0208,0.0165,0.0161,0.0158,0.0131,0.0128,0.0129,0.0128,0.0127,0.0126,0,0,0,0,0,0,0,0.0225,0.0226,0.0248,0.0243,0.0241,0.0222,0.0222,0.0203,0.0194,0.0219,0.0217,0.0218,0.0164,0.016,0.0156,0.0127,0.0129,0.0127,0.0126,0.0125,0.0081,0.0082,0,0,0,0,0,0,0.0233,0.0226,0.0248,0.0247,0.0232,0.0224,0.0223,0.0231,0.0195,0.019,0.0219,0.0217,0.0164,0.0159,0.0153,0.0152,0.0127,0.0125,0.0123,0.0081,0.0081,0.0082,0,0,0,0,0,0,0.0232,0.0235,0.0249,0.0237,0.0238,0.0225,0.0234,0.0231,0.0226,0.0196,0.0189,0.0217,0.0164,0.0157,0.0146,0.0149,0.0124,0.0122,0.0081,0.0081,0.0082,0.0147,0,0,0,0,0,0,0.0232,0.0235,0.0242,0.0238,0.0239,0.0259,0.0235,0.0231,0.0229,0.0226,0.0192,0.0185,0.0163,0.0149,0.0144,0.0145,0.012,0.0081,0.0081,0.0081,0.0145,0.015,0.0154,0,0,0,0,0,0.0231,0.0253,0.0242,0.0245,0.0249,0.026,0.0259,0.0246,0.0229,0.0236,0.0214,0.0186,0.0146,0.0148,0.0141,0.0142,0.0081,0.0081,0.0081,0.0143,0.0149,0.0154,0,0,0,0,0,0,0.0246,0.0252,0.024,0.0263,0.0262,0.0256,0.0265,0.0249,0.0237,0.0231,0.0196,0.0189,0.0178,0.0152,0.0154,0.0129,0.0106,0.0105,0.0155,0.016,0.0164,0.0183,0.0118,0,0,0,0,0,0.0251,0.0267,0.0265,0.0282,0.0286,0.0272,0.0273,0.0263,0.0253,0.0247,0.0223,0.0195,0.0175,0.0162,0.0142,0.0132,0.01,0.0125,0.0129,0.0133,0.0143,0.0097,0.0098,0.0083,0.0083,0.0083,0,0,0.0261,0.0266,0.0274,0.0285,0.0284,0.0305,0.0271,0.028,0.029,0.0241,0.0246,0.0213,0.0177,0.0169,0.016,0.0147,0.0121,0.0134,0.0138,0.0146,0.0097,0.0099,0.01,0.0083,0.0083,0.0083,0,0,0.0299,0.0296,0.0323,0.033,0.0334,0.0327,0.0332,0.0325,0.0316,0.0315,0.0279,0.025,0.0225,0.0197,0.018,0.0195,0.0149,0.0184,0.022,0.0175,0.0176,0.0176,0.0139,0.0136,0.0183,0.0183,0.0183,0,0.0308,0.0346,0.0332,0.0364,0.0375,0.0343,0.0375,0.0366,0.0353,0.0347,0.0326,0.0277,0.0239,0.0223,0.0226,0.0205,0.0177,0.0205,0.0182,0.0181,0.0181,0.0142,0.0138,0.0186,0.0186,0.0185,0.0185,0,0.0372,0.0397,0.0418,0.0444,0.0452,0.0475,0.0463,0.0462,0.0439,0.042,0.0397,0.0344,0.0314,0.0289,0.0264,0.0241,0.0222,0.0196,0.0171,0.0186,0.0145,0.0139,0.0191,0.0189,0.0188,0.0188,0,0,0.0406,0.0453,0.046,0.0487,0.0497,0.0514,0.0528,0.0532,0.0542,0.0501,0.0504,0.0445,0.0403,0.038,0.0331,0.0285,0.0248,0.0245,0.0241,0.0216,0.0157,0.0143,0.0135,0.022,0.0219,0.0219,0.0131,0,0.0459,0.0533,0.0537,0.06,0.0638,0.0618,0.0641,0.0632,0.0605,0.0599,0.0524,0.0506,0.0442,0.0425,0.037,0.0284,0.0236,0.0275,0.014,0.0136,0.0128,0.0129,0.0159,0.0084,0.0125,0.0124,0.0123,0,0.0524,0.0565,0.064,0.0688,0.0703,0.0732,0.0753,0.0766,0.0737,0.0711,0.0664,0.061,0.0543,0.0483,0.0341,0.0372,0.0275,0.0198,0.0192,0.0155,0.0112,0.0073,0.0071,0.0112,0.0113,0.0114,0.0115,0,0.0568,0.0636,0.0698,0.0718,0.0767,0.0794,0.0812,0.0803,0.0822,0.0781,0.0784,0.0686,0.0651,0.0516,0.0361,0.0351,0.0203,0.0164,0.0059,0.0056,0.0043,0.0041,0.0061,0.0061,0.0061,0.0062,0.0062,0,0.063,0.0681,0.073,0.0771,0.0847,0.0852,0.0915,0.0911,0.0914,0.0953,0.085,0.0854,0.0658,0.0555,0.0395,0.0218,0.0225,0.0069,0.0033,0.0067,0.0068,0.0062,0.0063,0.0058,0.0059,0.006,0.006,0,0.0677,0.0709,0.0788,0.0851,0.0878,0.0931,0.1,0.1038,0.1029,0.1075,0.1072,0.0979,0.0844,0.0645,0.0426,0.0275,0.0095,0.0029,0.0087,0.006,-0.0032,-0.0026,-0.0101,-0.0102,-0.0103,-0.0104,-0.0105,0,0.0708,0.0758,0.085,0.0901,0.0938,0.1014,0.1072,0.1093,0.1141,0.1162,0.1196,0.1089,0.1036,0.0707,0.0419,0.0139,0.0096,-0.0026,-0.005,-0.002,-0.0048,-0.0041,-0.0034,-0.0046,-0.0046,-0.0046,-0.0046,0,0.0766,0.0799,0.0863,0.097,0.1045,0.1136,0.1223,0.1285,0.1324,0.1365,0.1404,0.1367,0.1075,0.0797,0.041,0.0217,0.0018,-0.0038,-0.0027,-0.0003,0.0026,0.0001,0.0006,-0.0048,-0.0048,-0.0047,-0.0047,-0.0047,0.0804,0.0856,0.0939,0.1041,0.1132,0.125,0.1334,0.143,0.1532,0.1616,0.1566,0.1511,0.1201,0.071,0.0371,0.0008,0.0026,-0.0108,-0.0105,-0.0103,-0.0074,-0.0048,-0.013,-0.013,-0.0131,-0.0131,-0.0131,0,0.0845,0.0908,0.1002,0.1126,0.1228,0.1275,0.1429,0.1515,0.1651,0.1725,0.1755,0.1447,0.1131,0.0763,0.0237,-0.0072,-0.0099,-0.0183,-0.0144,-0.0139,-0.0136,-0.0108,-0.0174,-0.0176,-0.0177,-0.0178,0,0,0.0869,0.096,0.1009,0.1182,0.1274,0.142,0.1515,0.1651,0.174,0.1811,0.178,0.1709,0.1258,0.0867,0.0443,0.0135,0.0068,0.0069,0.0141,0.0244,0.0251,-0.0053,-0.0,0,0,0,0,0]}],[{"header":{"parameterUnit":"m.s-1","parameterCategory":2,"la1":30.2991,"la2":30.254,"lo1":-89.0895,"lo2":-89.0444,"dy":0.0017,"dx":0.0017,"nx":28,"ny":28,"refTime":"2024-05-13T21:00:00:Z","depth":"4","parameterNumber":2,"parameterNumberName":"U-component_of_CURRENTS"},"data":[0,0,0,0,0,0,0,0,0,0,0,0,0,0,0,0,0,0,0,0,0,0,0,0,0,0,0,0,0,0,0,0,0,0,0,0,0,0,0,0,0,0,0,0,0,0,0,0,0,0,0,0,0,0,0,0,0,0,0.1934,0.1935,0,0.2002,0.2002,0.2003,0.2068,0.2069,0.2069,0.207,0.2179,0.2181,0.2183,0,0,0,0,0,0,0,0,0,0,0,0,0,0.1879,0.1879,0.1934,0.1935,0.1936,0.2002,0.2002,0.2003,0.2067,0.2069,0.207,0.2071,0.2178,0.218,0.2183,0,0,0,0,0,0,0,0,0,0,0,0,0,0.1919,0.1879,0.1934,0.1977,0.1982,0.2002,0.2003,0.2003,0.2067,0.2069,0.207,0.2071,0.2177,0.218,0.2183,0.2173,0,0,0.2192,0.2193,0,0,0,0,0,0,0,0,0.1916,0.192,0.197,0.1974,0.1979,0.2029,0.2023,0.2063,0.2067,0.2033,0.207,0.2072,0.2132,0.2139,0.2146,0.2178,0.2182,0.2192,0.2194,0.2196,0.2196,0,0,0,0,0,0,0,0.1913,0.1918,0.1959,0.1971,0.1977,0.2,0.2006,0.203,0.2073,0.2036,0.2041,0.2051,0.2135,0.2143,0.2149,0.2184,0.2192,0.2195,0.2197,0.2198,0.2351,0.2353,0,0,0,0,0,0,0.1906,0.1915,0.1957,0.1962,0.1953,0.1999,0.2007,0.201,0.2072,0.2083,0.205,0.2054,0.2137,0.2145,0.2153,0.2269,0.2196,0.2198,0.22,0.2349,0.2352,0.2354,0,0,0,0,0,0,0.1904,0.1908,0.1955,0.1942,0.1949,0.1999,0.2002,0.2011,0.2061,0.2082,0.2094,0.2095,0.2138,0.2149,0.222,0.2269,0.22,0.2202,0.2346,0.235,0.2353,0.2422,0,0,0,0,0,0,0.1902,0.1907,0.1929,0.1941,0.195,0.1995,0.2001,0.2011,0.2062,0.207,0.2124,0.2134,0.214,0.2216,0.2223,0.2272,0.2205,0.2343,0.2348,0.2352,0.2417,0.2427,0.2436,0,0,0,0,0,0.19,0.1914,0.1929,0.1936,0.197,0.1996,0.2004,0.2042,0.2064,0.2091,0.2137,0.2134,0.2248,0.222,0.2228,0.2279,0.2341,0.2347,0.2352,0.2412,0.2425,0.2436,0,0,0,0,0,0,0.1906,0.1922,0.1939,0.1961,0.1992,0.2008,0.2041,0.2063,0.2119,0.214,0.216,0.2173,0.2255,0.2257,0.2225,0.2337,0.2295,0.2302,0.2339,0.2351,0.2361,0.2348,0.2207,0,0,0,0,0,0.1915,0.1932,0.1952,0.1978,0.1993,0.2025,0.205,0.2075,0.2113,0.2141,0.2184,0.223,0.2273,0.2306,0.2341,0.2398,0.2394,0.2438,0.2448,0.2456,0.2452,0.2492,0.2505,0.2371,0.2371,0.2371,0,0,0.1926,0.1939,0.1952,0.1982,0.2009,0.2038,0.2045,0.2091,0.2132,0.2143,0.2232,0.2269,0.2297,0.2368,0.2404,0.2382,0.2495,0.2462,0.2469,0.2461,0.2499,0.2512,0.2523,0.2374,0.2374,0.2373,0,0,0.194,0.1969,0.1984,0.2012,0.2057,0.2076,0.2098,0.2143,0.2187,0.2263,0.2286,0.2351,0.2424,0.245,0.2469,0.2552,0.2546,0.2578,0.2617,0.2658,0.2668,0.2678,0.2697,0.2708,0.2582,0.2582,0.2582,0,0.1961,0.1975,0.1997,0.2022,0.2053,0.2097,0.2129,0.2172,0.2245,0.2286,0.2308,0.243,0.2457,0.2527,0.2562,0.2573,0.2591,0.2569,0.2669,0.2678,0.2686,0.2704,0.2714,0.2586,0.2585,0.2585,0.2585,0,0.1971,0.2006,0.2021,0.2064,0.2103,0.2141,0.2193,0.226,0.2323,0.2363,0.2471,0.2516,0.2586,0.2611,0.2615,0.2696,0.2688,0.2676,0.2634,0.2704,0.2718,0.2728,0.2591,0.259,0.2589,0.2588,0,0,0.1956,0.2016,0.2028,0.2062,0.2131,0.2162,0.2243,0.2317,0.2382,0.247,0.2551,0.2635,0.2671,0.2695,0.2717,0.2751,0.283,0.2748,0.2749,0.2757,0.2919,0.2741,0.2735,0.2846,0.2848,0.285,0.2906,0,0.1965,0.2011,0.2043,0.2115,0.2145,0.2218,0.2288,0.237,0.245,0.2543,0.2606,0.2694,0.2699,0.2752,0.279,0.2827,0.2859,0.2815,0.2857,0.2858,0.2683,0.2741,0.2856,0.2914,0.2916,0.2917,0.2918,0,0.1955,0.1993,0.2051,0.2144,0.2168,0.2226,0.2351,0.242,0.2543,0.261,0.2703,0.2757,0.2844,0.2831,0.2922,0.2903,0.2918,0.293,0.2932,0.2743,0.2698,0.2829,0.2936,0.2934,0.2933,0.2932,0.2931,0,0.1913,0.1999,0.205,0.2081,0.2189,0.2253,0.2328,0.245,0.2518,0.2661,0.2733,0.2831,0.2907,0.2947,0.299,0.2975,0.3066,0.3042,0.2891,0.2879,0.299,0.298,0.3091,0.3091,0.3091,0.3091,0.3091,0,0.1882,0.1931,0.2046,0.2073,0.2159,0.2249,0.2352,0.2444,0.2571,0.2646,0.2771,0.2835,0.2946,0.301,0.302,0.2984,0.3097,0.2897,0.2881,0.302,0.3012,0.2997,0.2986,0.3093,0.3093,0.3092,0.3092,0,0.1811,0.1884,0.1952,0.2085,0.2135,0.2201,0.2351,0.2413,0.2562,0.2666,0.272,0.287,0.2952,0.3026,0.3094,0.3009,0.2997,0.2954,0.3102,0.3095,0.2774,0.2766,0.2778,0.2772,0.2767,0.2763,0.2759,0,0.1768,0.1797,0.1944,0.1989,0.2054,0.2167,0.2232,0.2389,0.2452,0.2656,0.2687,0.2833,0.2912,0.2861,0.2952,0.2951,0.2918,0.2885,0.2812,0.2758,0.2743,0.2742,0.2741,0.2752,0.275,0.2749,0.2748,0,0.169,0.1761,0.1817,0.191,0.1991,0.2064,0.2178,0.2206,0.2382,0.254,0.2586,0.2621,0.2706,0.274,0.2768,0.276,0.2888,0.2833,0.2842,0.2773,0.2727,0.2716,0.2721,0.2731,0.2733,0.2735,0.2736,0,0.1639,0.1656,0.1743,0.1807,0.19,0.193,0.2006,0.2076,0.2154,0.2375,0.2379,0.2533,0.2673,0.2643,0.2665,0.2649,0.2602,0.2499,0.2525,0.2545,0.2442,0.2347,0.2219,0,0,0,0,0,0.1576,0.1576,0.163,0.1685,0.1768,0.1823,0.1952,0.2032,0.2202,0.2171,0.2267,0.2329,0.2361,0.2436,0.2373,0.257,0.262,0.2484,0.2516,0.2636,0.2656,0.2556,0,0,0,0,0,0,0.153,0.1574,0.1583,0.1567,0.1581,0.1653,0.1728,0.1845,0.184,0.202,0.205,0.2182,0.2253,0.2372,0.2326,0.235,0.2319,0.2581,0.2575,0.2625,0.2643,0.2659,0.2563,0,0,0,0,0]},{"header":{"parameterUnit":"m.s-1","parameterCategory":2,"la1":30.2991,"la2":30.254,"lo1":-89.0895,"lo2":-89.0444,"dy":0.0017,"dx":0.0017,"nx":28,"ny":28,"refTime":"2024-05-13T21:00:00:Z","depth":"4","parameterNumber":3,"parameterNumberName":"V-component_of_CURRENTS"},"data":[0,0,0,0,0,0,0,0,0,0,0,0,0,0,0,0,0,0,0,0,0,0,0,0,0,0,0,0,0,0,0,0,0,0,0,0,0,0,0,0,0,0,0,0,0,0,0,0,0,0,0,0,0,0,0,0,0,0,0.0235,0.0235,0,0.023,0.023,0.023,0.0214,0.0214,0.0214,0.0214,0.0166,0.0165,0.0164,0,0,0,0,0,0,0,0,0,0,0,0,0,0.0202,0.0202,0.0235,0.0235,0.0235,0.023,0.023,0.023,0.0214,0.0214,0.0214,0.0214,0.0167,0.0165,0.0164,0,0,0,0,0,0,0,0,0,0,0,0,0,0.0207,0.0203,0.0235,0.0228,0.0227,0.023,0.023,0.023,0.0215,0.0214,0.0214,0.0214,0.0167,0.0166,0.0164,0.0161,0,0,0.0159,0.0158,0,0,0,0,0,0,0,0,0.0207,0.0208,0.0229,0.0228,0.0228,0.0224,0.0201,0.0205,0.0215,0.0218,0.0214,0.0213,0.0183,0.018,0.0178,0.0159,0.0157,0.0159,0.0158,0.0157,0.0157,0,0,0,0,0,0,0,0.0207,0.0208,0.0232,0.0229,0.0228,0.0215,0.0215,0.0201,0.0201,0.0218,0.0217,0.0218,0.0182,0.018,0.0177,0.0156,0.0159,0.0158,0.0157,0.0156,0.0122,0.0122,0,0,0,0,0,0,0.0212,0.0208,0.0232,0.0232,0.0218,0.0216,0.0216,0.0224,0.0202,0.0199,0.0219,0.0218,0.0183,0.0179,0.0175,0.0177,0.0157,0.0156,0.0155,0.0122,0.0122,0.0122,0,0,0,0,0,0,0.0211,0.0214,0.0232,0.022,0.0222,0.0217,0.0226,0.0224,0.0225,0.0203,0.0199,0.0221,0.0182,0.0177,0.0172,0.0175,0.0155,0.0154,0.0122,0.0122,0.0122,0.0177,0,0,0,0,0,0,0.0211,0.0214,0.0222,0.0221,0.0223,0.0242,0.0226,0.0225,0.0227,0.0225,0.0204,0.0199,0.0182,0.0174,0.017,0.0172,0.0153,0.0122,0.0122,0.0122,0.0175,0.0179,0.0182,0,0,0,0,0,0.0209,0.0228,0.0223,0.0226,0.0234,0.0242,0.0242,0.0236,0.0227,0.0234,0.022,0.02,0.0171,0.0174,0.0168,0.017,0.0122,0.0122,0.0122,0.0173,0.0178,0.0182,0,0,0,0,0,0,0.022,0.0229,0.0222,0.0243,0.0244,0.024,0.025,0.024,0.0234,0.0233,0.0207,0.0202,0.0196,0.0175,0.0178,0.0159,0.014,0.0139,0.0181,0.0185,0.0188,0.02,0.0151,0,0,0,0,0,0.0226,0.0241,0.0241,0.0257,0.0261,0.0254,0.0256,0.0251,0.0246,0.0243,0.0228,0.0208,0.0192,0.0184,0.0168,0.0162,0.0132,0.0156,0.016,0.0163,0.0168,0.0125,0.0125,0.0122,0.0122,0.0122,0,0,0.0234,0.024,0.0249,0.026,0.0262,0.0278,0.0255,0.0266,0.0274,0.0239,0.0247,0.0223,0.0194,0.0188,0.0182,0.0172,0.0148,0.0163,0.0166,0.0169,0.0125,0.0125,0.0125,0.0123,0.0122,0.0122,0,0,0.0263,0.0266,0.0289,0.0295,0.0302,0.0298,0.0303,0.0301,0.0296,0.0299,0.0272,0.0252,0.0234,0.0211,0.0197,0.0209,0.017,0.02,0.0228,0.0186,0.0186,0.0186,0.0151,0.0148,0.0201,0.0201,0.0201,0,0.0271,0.0302,0.0296,0.032,0.0331,0.0311,0.0337,0.0332,0.0325,0.0322,0.0309,0.0271,0.0244,0.0229,0.0232,0.0217,0.0191,0.0217,0.0191,0.019,0.0189,0.0154,0.0149,0.0203,0.0203,0.0203,0.0203,0,0.0317,0.0341,0.0358,0.0382,0.039,0.041,0.0403,0.0405,0.0392,0.0379,0.0362,0.0323,0.03,0.0282,0.0263,0.024,0.0223,0.0203,0.0184,0.0193,0.0155,0.0149,0.0207,0.0206,0.0205,0.0205,0,0,0.0338,0.0382,0.0389,0.0412,0.0425,0.044,0.0453,0.0457,0.0466,0.0438,0.044,0.0396,0.0366,0.0347,0.031,0.0269,0.0234,0.0238,0.0234,0.021,0.0148,0.0136,0.0127,0.021,0.021,0.0209,0.0127,0,0.0377,0.0435,0.0444,0.0497,0.0527,0.0517,0.0537,0.0532,0.0514,0.051,0.0453,0.0442,0.0394,0.0384,0.0335,0.0263,0.022,0.0258,0.0137,0.0134,0.0127,0.012,0.0206,0.0122,0.0121,0.012,0.0119,0,0.0421,0.0455,0.0517,0.0562,0.0574,0.0603,0.0623,0.0635,0.0614,0.0597,0.0561,0.0519,0.0463,0.042,0.0295,0.0324,0.0244,0.0179,0.0174,0.014,0.011,0.0108,0.0107,0.0108,0.0109,0.011,0.011,0,0.0445,0.0505,0.0558,0.0575,0.0622,0.0649,0.0669,0.0665,0.0681,0.0653,0.0656,0.0575,0.0547,0.0432,0.0303,0.0299,0.0161,0.0137,0.0047,0.0045,0.0058,0.0059,0.0044,0.0044,0.0045,0.0045,0.0045,0,0.0483,0.0527,0.0581,0.0614,0.0681,0.0693,0.0749,0.075,0.0756,0.0783,0.0708,0.07,0.0548,0.0454,0.0323,0.017,0.0173,0.0051,0.0022,0.0083,0.0088,0.0053,0.0055,0.0042,0.0042,0.0043,0.0043,0,0.0505,0.0541,0.0608,0.0672,0.0701,0.0748,0.0818,0.0847,0.0847,0.0878,0.0878,0.0794,0.0671,0.0511,0.0323,0.0208,0.0055,-0.0001,0.0086,0.0062,-0.0037,-0.0032,-0.0109,-0.011,-0.0111,-0.0112,-0.0112,0,0.0521,0.0561,0.0654,0.0702,0.074,0.0813,0.0864,0.0892,0.0927,0.0935,0.0952,0.0855,0.0779,0.0512,0.0329,0.0077,0.0036,-0.0047,-0.0056,-0.0033,-0.0054,-0.0047,-0.004,-0.0114,-0.0114,-0.0114,-0.0115,0,0.0549,0.0587,0.0643,0.0741,0.0812,0.0893,0.097,0.1003,0.1038,0.1042,0.1014,0.088,0.0738,0.0521,0.0327,0.0143,0.0003,-0.0058,-0.0058,-0.0066,-0.004,-0.0059,-0.0051,-0.0118,-0.0118,-0.0117,-0.0117,0,0.0569,0.0609,0.0685,0.0772,0.0864,0.0949,0.0989,0.1036,0.1073,0.1084,0.1071,0.0918,0.083,0.0554,0.0375,0.0194,0.0138,0.0067,0.006,0.0061,0.0127,0.0186,0.0153,0,0,0,0,0,0.058,0.0628,0.0707,0.0804,0.0894,0.0954,0.1049,0.1079,0.112,0.111,0.1095,0.0965,0.0701,0.0584,0.0401,0.0337,0.0095,0.0113,0.0006,-0.0137,-0.0133,-0.0086,0,0,0,0,0,0,0.0588,0.0661,0.0703,0.0816,0.0884,0.0988,0.1054,0.1084,0.1081,0.1093,0.0958,0.0902,0.0646,0.0807,0.0393,0.0338,0.024,-0.0005,-0.001,-0.0139,-0.0136,-0.0132,-0.0083,0,0,0,0,0]}]]